[[{"header":{"parameterUnit":"m.s-1","parameterCategory":1,"la1":30.2991,"la2":30.254,"lo1":-89.0895,"lo2":-89.0444,"dy":0.0017,"dx":0.0017,"nx":28,"ny":28,"refTime":"2025-04-27T09:00:00:Z","depth":0,"parameterNumber":2,"parameterNumberName":"U-component_of_WINDS"},"data":[0,0,0,0,0,0,0,0,0,0,0,0,0,0,0,0,0,0,0,0,0,0,0,0,0,0,0,0,0,0,0,0,0,0,0,0,0,0,0,0,0,0,0,0,0,0,0,0,0,0,0,0,0,0,0,0,0,0,0.5812,0.5813,0,0.5952,0.5953,0.5955,0.6014,0.6014,0.6013,0.6013,0.6156,0.616,0.6164,0,0,0,0,0,0,0,0,0,0,0,0,0,0.5595,0.5599,0.5812,0.5814,0.5815,0.5951,0.5953,0.5955,0.6014,0.6014,0.6013,0.6013,0.6155,0.616,0.6165,0,0,0,0,0,0,0,0,0,0,0,0,0,0.5707,0.56,0.5811,0.5861,0.5867,0.5951,0.5953,0.5956,0.6014,0.6014,0.6013,0.6013,0.6153,0.6159,0.6165,0.6211,0,0,0.6184,0.6187,0,0,0,0,0,0,0,0,0.5701,0.5715,0.5852,0.5858,0.5864,0.5965,0.5929,0.6041,0.6014,0.5958,0.6013,0.6013,0.6093,0.6104,0.6131,0.6217,0.6223,0.6184,0.6188,0.6191,0.6192,0,0,0,0,0,0,0,0.5693,0.571,0.5867,0.5854,0.5862,0.5876,0.5891,0.5951,0.6026,0.5963,0.5968,0.5983,0.6096,0.6125,0.6135,0.6226,0.6184,0.619,0.6193,0.6196,0.6355,0.6356,0,0,0,0,0,0,0.5677,0.5703,0.5863,0.5871,0.578,0.588,0.5898,0.5933,0.6026,0.6039,0.5983,0.5986,0.6115,0.6128,0.614,0.6199,0.6191,0.6196,0.62,0.6355,0.6355,0.6356,0,0,0,0,0,0,0.5672,0.5691,0.5857,0.5788,0.5811,0.5884,0.5924,0.5936,0.5965,0.6041,0.6055,0.5999,0.6115,0.6132,0.6192,0.6205,0.6199,0.6205,0.6354,0.6355,0.6356,0.6317,0,0,0,0,0,0,0.5666,0.5689,0.5707,0.5788,0.5814,0.5907,0.5924,0.5939,0.5975,0.5979,0.6059,0.6072,0.6116,0.6183,0.6198,0.6213,0.6209,0.6353,0.6354,0.6355,0.6317,0.6316,0.6315,0,0,0,0,0,0.5658,0.5691,0.5708,0.5727,0.5838,0.5908,0.5922,0.5972,0.5976,0.5995,0.6043,0.607,0.6201,0.6189,0.6207,0.6223,0.6353,0.6354,0.6355,0.6318,0.6316,0.6315,0,0,0,0,0,0,0.5609,0.5702,0.5722,0.5782,0.5836,0.5917,0.5943,0.5969,0.6024,0.6025,0.6084,0.6102,0.6158,0.6197,0.6182,0.6271,0.6279,0.6284,0.6244,0.6244,0.6242,0.6232,0.6214,0,0,0,0,0,0.5605,0.5654,0.5733,0.5778,0.5804,0.5868,0.5901,0.5934,0.5993,0.6016,0.607,0.6125,0.6179,0.6214,0.6267,0.6323,0.6341,0.6343,0.6342,0.6341,0.6345,0.6376,0.6378,0.636,0.636,0.636,0,0,0.5598,0.5655,0.5682,0.577,0.5816,0.5865,0.5888,0.5939,0.5975,0.6024,0.6085,0.6125,0.6192,0.625,0.6278,0.6284,0.6353,0.6342,0.6341,0.6346,0.6378,0.6379,0.6381,0.6361,0.6361,0.6361,0,0,0.561,0.5658,0.5701,0.5746,0.5815,0.5858,0.5868,0.5945,0.5974,0.6036,0.6073,0.6117,0.6209,0.6254,0.6289,0.6317,0.6343,0.6333,0.6328,0.6358,0.6359,0.6361,0.6371,0.6373,0.6336,0.6336,0.6336,0,0.5592,0.5667,0.5719,0.5768,0.5805,0.5851,0.5895,0.5936,0.6019,0.6044,0.6049,0.6164,0.6212,0.6281,0.6288,0.6315,0.6328,0.6324,0.6355,0.6357,0.6359,0.6369,0.6373,0.6334,0.6335,0.6335,0.6335,0,0.5642,0.5693,0.572,0.5799,0.5839,0.5885,0.5943,0.5977,0.6007,0.6048,0.611,0.6169,0.6235,0.6254,0.6284,0.6327,0.6329,0.6344,0.6352,0.6358,0.6369,0.6373,0.6332,0.6333,0.6333,0.6333,0,0,0.5628,0.5734,0.5743,0.5779,0.5858,0.5899,0.5946,0.6011,0.6039,0.6094,0.6136,0.6211,0.6225,0.6265,0.63,0.6327,0.6344,0.6338,0.6341,0.6337,0.6396,0.6384,0.6388,0.6362,0.6363,0.6363,0.639,0,0.565,0.5738,0.5785,0.5853,0.5901,0.5944,0.5986,0.6038,0.6078,0.6125,0.6169,0.6221,0.6236,0.626,0.6288,0.6336,0.6357,0.6335,0.6401,0.6402,0.6383,0.6393,0.6382,0.6404,0.6395,0.6395,0.6396,0,0.5688,0.5743,0.5815,0.5888,0.591,0.5946,0.6009,0.6053,0.6113,0.614,0.6184,0.6218,0.627,0.6274,0.6345,0.6329,0.6359,0.6386,0.6388,0.6396,0.64,0.6402,0.6413,0.6416,0.6403,0.6402,0.6402,0,0.5671,0.5762,0.5817,0.5846,0.5933,0.5958,0.5995,0.6055,0.609,0.6145,0.6168,0.6228,0.6261,0.6306,0.6355,0.6354,0.6422,0.643,0.6446,0.6444,0.6459,0.6457,0.6474,0.6477,0.6477,0.6477,0.6477,0,0.5691,0.5733,0.581,0.5844,0.5892,0.5946,0.5992,0.6033,0.6086,0.6128,0.6169,0.6208,0.6271,0.6317,0.6356,0.6409,0.6423,0.6446,0.6456,0.6443,0.644,0.6464,0.6463,0.6478,0.6477,0.6477,0.6477,0,0.5679,0.5733,0.5795,0.5872,0.5892,0.5925,0.599,0.6024,0.6066,0.6118,0.6134,0.6199,0.6255,0.6309,0.6385,0.6411,0.6464,0.6477,0.6443,0.6449,0.6461,0.6459,0.6494,0.6502,0.6499,0.6499,0.6499,0,0.5689,0.5723,0.5803,0.5834,0.587,0.592,0.5956,0.601,0.6046,0.6117,0.6143,0.6202,0.6252,0.634,0.6394,0.6452,0.6467,0.6475,0.6476,0.6461,0.6467,0.6465,0.6468,0.6474,0.6474,0.6474,0.6473,0,0.57,0.5725,0.5776,0.5836,0.5878,0.5927,0.5978,0.6001,0.6065,0.6103,0.6161,0.62,0.6277,0.6335,0.6399,0.6437,0.6466,0.6472,0.6479,0.6466,0.6446,0.6457,0.644,0.6472,0.6472,0.6472,0.6472,0.6472,0.57,0.5732,0.5793,0.5848,0.5892,0.5939,0.5974,0.602,0.6069,0.6136,0.6165,0.6223,0.6282,0.6371,0.6408,0.6455,0.6462,0.6471,0.6474,0.6475,0.6473,0.6437,0.6467,0.6467,0.6467,0.6467,0.6467,0,0.5714,0.5755,0.5805,0.5875,0.5918,0.5941,0.5998,0.6033,0.6084,0.6136,0.6185,0.6251,0.6308,0.6366,0.6425,0.6451,0.6466,0.6465,0.6464,0.6472,0.6463,0.6452,0.6452,0.6452,0.6452,0.6452,0.6452,0.6452,0.5726,0.578,0.5812,0.5889,0.593,0.5988,0.6018,0.6061,0.6103,0.6176,0.6223,0.626,0.6315,0.6379,0.6431,0.6447,0.6467,0.6462,0.6482,0.6472,0.6473,0.6474,0.6463,0.6466,0.6466,0.6487,0.6487,0.6487]},{"header":{"parameterUnit":"m.s-1","parameterCategory":1,"la1":30.2991,"la2":30.254,"lo1":-89.0895,"lo2":-89.0444,"dy":0.0017,"dx":0.0017,"nx":28,"ny":28,"refTime":"2025-04-27T09:00:00:Z","depth":0,"parameterNumber":3,"parameterNumberName":"V-component_of_WINDS"},"data":[0,0,0,0,0,0,0,0,0,0,0,0,0,0,0,0,0,0,0,0,0,0,0,0,0,0,0,0,0,0,0,0,0,0,0,0,0,0,0,0,0,0,0,0,0,0,0,0,0,0,0,0,0,0,0,0,0,0,3.4512,3.4512,0,3.4478,3.4478,3.4477,3.4431,3.443,3.443,3.4429,3.4393,3.4393,3.4393,0,0,0,0,0,0,0,0,0,0,0,0,0,3.4536,3.4536,3.4512,3.4512,3.4511,3.4478,3.4478,3.4477,3.4431,3.443,3.4429,3.4429,3.4393,3.4393,3.4393,0,0,0,0,0,0,0,0,0,0,0,0,0,3.4516,3.4536,3.4512,3.4484,3.4481,3.4478,3.4478,3.4477,3.4431,3.443,3.4429,3.4428,3.4393,3.4393,3.4393,3.4414,0,0,3.4392,3.4392,0,0,0,0,0,0,0,0,3.4517,3.4515,3.4489,3.4486,3.4483,3.4458,3.4473,3.4456,3.4432,3.445,3.4429,3.4427,3.4416,3.4413,3.4409,3.4412,3.4411,3.4392,3.4391,3.4391,3.4391,0,0,0,0,0,0,0,3.4519,3.4517,3.4499,3.4488,3.4485,3.4473,3.4469,3.447,3.444,3.4449,3.4445,3.4442,3.4414,3.441,3.4408,3.441,3.4392,3.4391,3.4391,3.4391,3.4429,3.443,0,0,0,0,0,0,3.4524,3.4518,3.45,3.4498,3.4498,3.4474,3.4469,3.4467,3.444,3.4435,3.4443,3.444,3.4411,3.4409,3.4407,3.443,3.4391,3.4391,3.4391,3.4428,3.4429,3.4431,0,0,0,0,0,0,3.4525,3.4523,3.4501,3.4507,3.4503,3.4475,3.4473,3.4467,3.4463,3.4435,3.443,3.4445,3.441,3.4407,3.4413,3.4428,3.4391,3.439,3.4426,3.4428,3.443,3.4477,0,0,0,0,0,0,3.4526,3.4524,3.4532,3.4507,3.4503,3.4508,3.4473,3.4467,3.4463,3.4458,3.4436,3.4431,3.4409,3.4413,3.4412,3.4427,3.439,3.4425,3.4427,3.4429,3.4474,3.448,3.4486,0,0,0,0,0,3.4527,3.4546,3.4532,3.453,3.4512,3.4509,3.4506,3.4481,3.4464,3.4472,3.4454,3.4431,3.4427,3.4414,3.4413,3.4428,3.4424,3.4427,3.4429,3.4471,3.4479,3.4486,0,0,0,0,0,0,3.4572,3.4542,3.4527,3.4538,3.4527,3.4501,3.451,3.449,3.4483,3.4479,3.4448,3.4443,3.4452,3.444,3.4427,3.4447,3.4422,3.4424,3.4455,3.4462,3.4467,3.447,3.439,0,0,0,0,0,3.4584,3.4584,3.4557,3.457,3.4565,3.4539,3.4536,3.4518,3.4504,3.4499,3.4481,3.4469,3.4464,3.4462,3.4457,3.4472,3.4466,3.4482,3.4487,3.4492,3.4495,3.4502,3.4509,3.444,3.444,3.4439,0,0,3.4607,3.4591,3.4593,3.4579,3.4568,3.4568,3.4535,3.4536,3.4536,3.4499,3.4503,3.449,3.4474,3.4484,3.4488,3.4475,3.4513,3.4496,3.45,3.45,3.4506,3.4513,3.4518,3.4441,3.4441,3.4441,0,0,3.465,3.4638,3.4648,3.4637,3.462,3.4603,3.4605,3.4583,3.4573,3.4577,3.4549,3.4548,3.4541,3.4531,3.4525,3.4565,3.4543,3.4564,3.4594,3.4602,3.4607,3.4612,3.4627,3.4632,3.4566,3.4566,3.4567,0,3.4682,3.4681,3.4655,3.4659,3.4653,3.462,3.463,3.4621,3.4603,3.46,3.4586,3.4577,3.4563,3.4571,3.4581,3.4577,3.4579,3.4566,3.4609,3.4613,3.4617,3.4631,3.4636,3.4569,3.4569,3.4568,3.4568,0,3.4721,3.4721,3.4731,3.4715,3.4711,3.4718,3.4692,3.4691,3.4674,3.4658,3.4662,3.4645,3.4636,3.4636,3.4619,3.4642,3.4634,3.4615,3.4589,3.4627,3.4639,3.4644,3.4573,3.4572,3.4571,3.457,0,0,3.4791,3.4762,3.4766,3.4758,3.4738,3.4737,3.4743,3.4734,3.4734,3.4723,3.4726,3.4722,3.4704,3.4697,3.4678,3.4685,3.4718,3.4665,3.4664,3.4675,3.4743,3.4758,3.4764,3.4704,3.4705,3.4705,3.4744,0,3.4831,3.4838,3.4815,3.4828,3.4828,3.4797,3.4801,3.4789,3.4774,3.4772,3.4755,3.4753,3.4729,3.4725,3.473,3.4713,3.4731,3.471,3.4707,3.4707,3.4712,3.477,3.4786,3.4824,3.4749,3.475,3.475,0,3.4878,3.487,3.4883,3.4863,3.4862,3.4866,3.4857,3.4855,3.4841,3.4829,3.4822,3.4801,3.4804,3.4779,3.4784,3.477,3.4767,3.4758,3.4759,3.4758,3.4731,3.4771,3.4835,3.4841,3.4757,3.4757,3.4756,0,3.4928,3.4921,3.4928,3.4923,3.4899,3.4903,3.4893,3.4877,3.4874,3.4865,3.4863,3.4855,3.485,3.4845,3.4821,3.4805,3.4828,3.4802,3.4819,3.482,3.4826,3.4826,3.489,3.4824,3.4824,3.4824,3.4823,0,3.4975,3.4984,3.4951,3.4955,3.4965,3.4938,3.4948,3.4935,3.4922,3.4923,3.4895,3.4897,3.4866,3.4865,3.4846,3.4853,3.4851,3.4842,3.4837,3.4845,3.4846,3.4843,3.484,3.4825,3.4825,3.4824,3.4824,0,3.5033,3.5011,3.5017,3.4994,3.4988,3.4996,3.4976,3.498,3.4963,3.4965,3.4964,3.4939,3.4935,3.4912,3.4903,3.489,3.4904,3.4894,3.4909,3.4906,3.4925,3.4924,3.499,3.4997,3.4926,3.4927,3.4927,0,3.5064,3.5071,3.5049,3.5048,3.5039,3.5038,3.5035,3.5008,3.5006,3.499,3.4995,3.499,3.4984,3.498,3.4961,3.4954,3.4943,3.4967,3.4942,3.495,3.4944,3.4944,3.4945,3.4973,3.4973,3.4974,3.4975,0,3.5122,3.5111,3.5107,3.51,3.5096,3.5089,3.508,3.5081,3.5052,3.505,3.5047,3.5042,3.5034,3.5029,3.5019,3.5008,3.4987,3.4983,3.4987,3.4995,3.5003,3.4999,3.4924,3.4981,3.4981,3.498,3.498,3.498,3.5168,3.5173,3.5158,3.5155,3.5145,3.5138,3.514,3.5124,3.5121,3.5112,3.5096,3.5096,3.5081,3.5065,3.5057,3.5055,3.5043,3.5048,3.505,3.5052,3.5056,3.5004,3.5053,3.5053,3.5053,3.5053,3.5053,0,3.5225,3.5214,3.5211,3.52,3.5198,3.5178,3.5167,3.5166,3.5166,3.5155,3.515,3.5146,3.5141,3.5122,3.5115,3.5117,3.5107,3.5116,3.5116,3.5114,3.5067,3.5065,3.5125,3.5125,3.5125,3.5125,3.5125,3.5125,3.5254,3.5261,3.5249,3.5251,3.524,3.5239,3.5235,3.5227,3.5218,3.5216,3.5212,3.5199,3.5184,3.5176,3.5171,3.5165,3.5164,3.5177,3.5168,3.5124,3.5117,3.5111,3.5108,3.5176,3.5176,3.5215,3.5215,3.5215]}]]